Time,TemperatureF,DewpointF,PressureIn,WindDirection,WindDirectionDegrees,WindSpeedMPH,WindSpeedGustMPH,Humidity,HourlyPrecipIn,Conditions,Clouds,dailyrainin,SoftwareType,DateUTC
2013-04-15 00:14:00,80.7,76.0,29.86,East,82,10.0,15.0,85,0.00,,,0.00,weatherlink.com 1.10,2013-04-15 04:14:00,
2013-04-15 00:29:00,80.8,76.0,29.86,East,90,7.0,14.0,85,0.00,,,0.00,weatherlink.com 1.10,2013-04-15 04:29:00,
2013-04-15 00:44:00,80.9,76.0,29.86,ESE,113,11.0,17.0,85,0.00,,,0.00,weatherlink.com 1.10,2013-04-15 04:44:00,
2013-04-15 00:59:00,81.0,76.0,29.86,ENE,71,4.0,15.0,85,0.00,,,0.00,weatherlink.com 1.10,2013-04-15 04:59:00,
2013-04-15 01:14:00,80.8,76.0,29.86,ENE,59,9.0,15.0,85,0.00,,,0.00,weatherlink.com 1.10,2013-04-15 05:14:00,
2013-04-15 01:29:00,80.7,76.0,29.86,East,88,6.0,16.0,85,0.00,,,0.00,weatherlink.com 1.10,2013-04-15 05:29:00,
2013-04-15 01:45:00,80.7,76.0,29.85,East,82,14.0,16.0,85,0.00,,,0.00,weatherlink.com 1.10,2013-04-15 05:45:00,
2013-04-15 02:00:00,80.5,76.0,29.85,ESE,110,3.0,13.0,85,0.00,,,0.00,weatherlink.com 1.10,2013-04-15 06:00:00,
2013-04-15 02:15:00,80.5,76.0,29.84,East,91,5.0,17.0,85,0.00,,,0.00,weatherlink.com 1.10,2013-04-15 06:15:00,
2013-04-15 02:30:00,80.4,76.0,29.84,East,81,10.0,14.0,85,0.00,,,0.00,weatherlink.com 1.10,2013-04-15 06:30:00,
2013-04-15 02:45:00,80.4,76.0,29.84,East,80,5.0,16.0,85,0.00,,,0.00,weatherlink.com 1.10,2013-04-15 06:45:00,
2013-04-15 03:00:00,80.3,76.0,29.84,ENE,76,7.0,16.0,85,0.00,,,0.00,weatherlink.com 1.10,2013-04-15 07:00:00,
2013-04-15 03:45:00,80.3,76.0,29.83,ENE,73,9.0,16.0,85,0.00,,,0.00,weatherlink.com 1.10,2013-04-15 07:45:00,
2013-04-15 04:00:00,80.3,76.0,29.83,East,86,9.0,16.0,85,0.00,,,0.00,weatherlink.com 1.10,2013-04-15 08:00:00,
2013-04-15 04:15:00,80.3,76.0,29.83,East,82,9.0,17.0,86,0.00,,,0.00,weatherlink.com 1.10,2013-04-15 08:15:00,
2013-04-15 04:30:00,80.2,75.0,29.84,ENE,68,5.0,15.0,85,0.00,,,0.00,weatherlink.com 1.10,2013-04-15 08:30:00,
2013-04-15 04:45:00,80.3,76.0,29.84,NE,50,9.0,19.0,85,0.00,,,0.00,weatherlink.com 1.10,2013-04-15 08:45:00,
2013-04-15 05:00:00,80.3,76.0,29.84,East,98,3.0,15.0,85,0.00,,,0.00,weatherlink.com 1.10,2013-04-15 09:00:00,
2013-04-15 05:15:00,80.3,76.0,29.85,ENE,69,4.0,13.0,85,0.00,,,0.00,weatherlink.com 1.10,2013-04-15 09:15:00,
2013-04-15 05:30:00,80.4,75.0,29.85,ENE,69,7.0,16.0,84,0.00,,,0.00,weatherlink.com 1.10,2013-04-15 09:30:00,
2013-04-15 05:45:00,80.5,75.0,29.85,ESE,104,5.0,15.0,83,0.00,,,0.00,weatherlink.com 1.10,2013-04-15 09:45:00,
2013-04-15 06:00:00,80.5,75.0,29.86,ENE,69,4.0,14.0,83,0.00,,,0.00,weatherlink.com 1.10,2013-04-15 10:00:00,
2013-04-15 06:15:00,80.6,75.0,29.86,NE,50,5.0,14.0,82,0.00,,,0.00,weatherlink.com 1.10,2013-04-15 10:15:00,
2013-04-15 06:30:00,80.5,75.0,29.86,East,80,2.0,18.0,83,0.00,,,0.00,weatherlink.com 1.10,2013-04-15 10:30:00,
2013-04-15 06:45:00,80.5,75.0,29.87,ESE,114,12.0,16.0,83,0.00,,,0.00,weatherlink.com 1.10,2013-04-15 10:45:00,
2013-04-15 07:15:00,80.9,75.0,29.88,ESE,104,5.0,21.0,83,0.00,,,0.00,weatherlink.com 1.10,2013-04-15 11:15:00,
2013-04-15 07:30:00,81.2,75.0,29.89,ESE,109,12.0,22.0,81,0.00,,,0.00,weatherlink.com 1.10,2013-04-15 11:30:00,
2013-04-15 07:45:00,81.4,75.0,29.90,East,94,9.0,17.0,82,0.00,,,0.00,weatherlink.com 1.10,2013-04-15 11:45:00,
2013-04-15 08:00:00,81.6,75.0,29.90,East,79,10.0,19.0,81,0.00,,,0.00,weatherlink.com 1.10,2013-04-15 12:00:00,
2013-04-15 08:15:00,81.7,75.0,29.91,ENE,74,13.0,18.0,81,0.00,,,0.00,weatherlink.com 1.10,2013-04-15 12:15:00,
2013-04-15 08:30:00,82.0,76.0,29.91,SE,127,5.0,21.0,81,0.00,,,0.00,weatherlink.com 1.10,2013-04-15 12:30:00,
2013-04-15 08:45:00,82.8,76.0,29.91,East,89,13.0,24.0,79,0.00,,,0.00,weatherlink.com 1.10,2013-04-15 12:45:00,
2013-04-15 09:15:00,83.9,76.0,29.91,ENE,78,11.0,19.0,77,0.00,,,0.00,weatherlink.com 1.10,2013-04-15 13:15:00,
2013-04-15 09:30:00,83.7,76.0,29.91,ENE,74,18.0,22.0,77,0.00,,,0.00,weatherlink.com 1.10,2013-04-15 13:30:00,
2013-04-15 09:45:00,83.9,76.0,29.91,East,95,11.0,22.0,77,0.00,,,0.00,weatherlink.com 1.10,2013-04-15 13:45:00,
2013-04-15 10:00:00,84.6,76.0,29.91,ESE,107,10.0,22.0,75,0.00,,,0.00,weatherlink.com 1.10,2013-04-15 14:00:00,
2013-04-15 10:15:00,85.6,76.0,29.91,East,100,17.0,19.0,72,0.00,,,0.00,weatherlink.com 1.10,2013-04-15 14:15:00,
2013-04-15 10:30:00,84.5,75.0,29.91,NE,51,16.0,24.0,74,0.00,,,0.00,weatherlink.com 1.10,2013-04-15 14:30:00,
2013-04-15 10:45:00,84.8,76.0,29.91,East,82,11.0,23.0,74,0.00,,,0.00,weatherlink.com 1.10,2013-04-15 14:45:00,
2013-04-15 11:00:00,85.3,76.0,29.91,ESE,109,19.0,24.0,74,0.00,,,0.00,weatherlink.com 1.10,2013-04-15 15:00:00,
2013-04-15 11:15:00,85.5,76.0,29.91,East,85,8.0,21.0,73,0.00,,,0.00,weatherlink.com 1.10,2013-04-15 15:15:00,
2013-04-15 11:30:00,85.5,76.0,29.91,ESE,103,22.0,24.0,73,0.00,,,0.00,weatherlink.com 1.10,2013-04-15 15:30:00,
2013-04-15 11:45:00,85.7,76.0,29.90,ENE,74,15.0,25.0,73,0.00,,,0.00,weatherlink.com 1.10,2013-04-15 15:45:00,
2013-04-15 12:01:00,86.2,77.0,29.89,East,82,20.0,25.0,73,0.00,,,0.00,weatherlink.com 1.10,2013-04-15 16:01:00,
2013-04-15 12:16:00,86.4,76.0,29.89,ENE,70,18.0,26.0,71,0.00,,,0.00,weatherlink.com 1.10,2013-04-15 16:16:00,
2013-04-15 12:31:00,86.5,77.0,29.89,East,89,17.0,23.0,72,0.00,,,0.00,weatherlink.com 1.10,2013-04-15 16:31:00,
2013-04-15 12:46:00,86.1,76.0,29.88,ESE,115,13.0,25.0,72,0.00,,,0.00,weatherlink.com 1.10,2013-04-15 16:46:00,
2013-04-15 13:01:00,86.2,76.0,29.88,ENE,67,5.0,21.0,71,0.00,,,0.00,weatherlink.com 1.10,2013-04-15 17:01:00,
2013-04-15 13:16:00,86.3,76.0,29.88,East,96,10.0,19.0,72,0.00,,,0.00,weatherlink.com 1.10,2013-04-15 17:16:00,
2013-04-15 13:31:00,86.1,76.0,29.87,SE,125,9.0,21.0,72,0.00,,,0.00,weatherlink.com 1.10,2013-04-15 17:31:00,
2013-04-15 13:46:00,85.9,76.0,29.86,ENE,58,16.0,23.0,73,0.00,,,0.00,weatherlink.com 1.10,2013-04-15 17:46:00,
2013-04-15 14:01:00,85.9,76.0,29.86,ENE,69,7.0,25.0,73,0.00,,,0.00,weatherlink.com 1.10,2013-04-15 18:01:00,
2013-04-15 14:16:00,86.3,76.0,29.86,ESE,102,14.0,23.0,72,0.00,,,0.00,weatherlink.com 1.10,2013-04-15 18:16:00,
2013-04-15 14:31:00,86.5,77.0,29.86,ENE,74,13.0,20.0,72,0.00,,,0.00,weatherlink.com 1.10,2013-04-15 18:31:00,
2013-04-15 14:46:00,86.1,77.0,29.85,ENE,58,14.0,16.0,73,0.00,,,0.00,weatherlink.com 1.10,2013-04-15 18:46:00,
2013-04-15 15:01:00,85.3,76.0,29.84,ESE,105,12.0,25.0,74,0.00,,,0.00,weatherlink.com 1.10,2013-04-15 19:01:00,
2013-04-15 15:16:00,85.8,77.0,29.84,East,84,18.0,18.0,74,0.00,,,0.00,weatherlink.com 1.10,2013-04-15 19:16:00,
2013-04-15 15:31:00,85.2,77.0,29.84,East,98,9.0,25.0,75,0.00,,,0.00,weatherlink.com 1.10,2013-04-15 19:31:00,
2013-04-15 16:01:00,85.3,77.0,29.83,East,80,20.0,21.0,75,0.00,,,0.00,weatherlink.com 1.10,2013-04-15 20:01:00,
2013-04-15 16:16:00,85.2,77.0,29.82,ENE,69,12.0,21.0,75,0.00,,,0.00,weatherlink.com 1.10,2013-04-15 20:16:00,
2013-04-15 16:46:00,84.5,77.0,29.82,ESE,102,8.0,18.0,77,0.00,,,0.00,weatherlink.com 1.10,2013-04-15 20:46:00,
2013-04-15 17:31:00,83.2,76.0,29.82,ENE,67,9.0,24.0,79,0.00,,,0.00,weatherlink.com 1.10,2013-04-15 21:31:00,
2013-04-15 17:46:00,83.1,76.0,29.82,NE,48,8.0,22.0,79,0.00,,,0.00,weatherlink.com 1.10,2013-04-15 21:46:00,
2013-04-15 18:01:00,82.7,76.0,29.82,NE,35,13.0,19.0,81,0.00,,,0.00,weatherlink.com 1.10,2013-04-15 22:01:00,
2013-04-15 18:16:00,82.3,76.0,29.83,East,80,9.0,21.0,81,0.00,,,0.00,weatherlink.com 1.10,2013-04-15 22:16:00,
2013-04-15 18:31:00,82.0,76.0,29.83,ENE,69,10.0,17.0,82,0.00,,,0.00,weatherlink.com 1.10,2013-04-15 22:31:00,
2013-04-15 18:46:00,81.7,76.0,29.83,ENE,60,7.0,18.0,82,0.00,,,0.00,weatherlink.com 1.10,2013-04-15 22:46:00,
2013-04-15 19:01:00,81.5,76.0,29.83,NE,54,9.0,25.0,82,0.00,,,0.00,weatherlink.com 1.10,2013-04-15 23:01:00,
2013-04-15 19:16:00,81.4,76.0,29.84,ENE,67,10.0,21.0,84,0.00,,,0.00,weatherlink.com 1.10,2013-04-15 23:16:00,
2013-04-15 19:46:00,81.1,76.0,29.84,ENE,78,5.0,21.0,85,0.00,,,0.00,weatherlink.com 1.10,2013-04-15 23:46:00,
2013-04-15 20:01:00,81.1,77.0,29.85,ENE,78,5.0,18.0,86,0.00,,,0.00,weatherlink.com 1.10,2013-04-16 00:01:00,
2013-04-15 20:16:00,81.0,77.0,29.86,NE,53,6.0,16.0,86,0.00,,,0.00,weatherlink.com 1.10,2013-04-16 00:16:00,
2013-04-15 20:31:00,81.0,77.0,29.87,ESE,109,16.0,17.0,86,0.00,,,0.00,weatherlink.com 1.10,2013-04-16 00:31:00,
2013-04-15 20:46:00,80.9,76.0,29.87,ENE,75,5.0,14.0,86,0.00,,,0.00,weatherlink.com 1.10,2013-04-16 00:46:00,
2013-04-15 21:01:00,80.8,76.0,29.87,ENE,70,11.0,16.0,86,0.00,,,0.00,weatherlink.com 1.10,2013-04-16 01:01:00,
2013-04-15 21:16:00,80.8,76.0,29.88,ESE,111,3.0,16.0,86,0.00,,,0.00,weatherlink.com 1.10,2013-04-16 01:16:00,
2013-04-15 21:46:00,80.6,77.0,29.88,NE,44,7.0,13.0,87,0.00,,,0.00,weatherlink.com 1.10,2013-04-16 01:46:00,
2013-04-15 22:01:00,80.5,76.0,29.89,ENE,58,9.0,13.0,87,0.00,,,0.00,weatherlink.com 1.10,2013-04-16 02:01:00,
2013-04-15 22:16:00,80.5,76.0,29.89,East,88,14.0,15.0,87,0.00,,,0.00,weatherlink.com 1.10,2013-04-16 02:16:00,
2013-04-15 22:31:00,80.6,77.0,29.89,ENE,57,10.0,14.0,87,0.00,,,0.00,weatherlink.com 1.10,2013-04-16 02:31:00,
2013-04-15 22:46:00,80.6,77.0,29.90,ENE,59,5.0,17.0,87,0.00,,,0.00,weatherlink.com 1.10,2013-04-16 02:46:00,
2013-04-15 23:01:00,80.7,77.0,29.90,East,87,5.0,14.0,88,0.00,,,0.00,weatherlink.com 1.10,2013-04-16 03:01:00,
2013-04-15 23:16:00,80.7,77.0,29.90,East,86,8.0,13.0,88,0.00,,,0.00,weatherlink.com 1.10,2013-04-16 03:16:00,
2013-04-15 23:31:00,80.8,77.0,29.90,East,88,3.0,15.0,87,0.00,,,0.00,weatherlink.com 1.10,2013-04-16 03:31:00,